Time,TemperatureF,DewpointF,PressureIn,WindDirection,WindDirectionDegrees,WindSpeedMPH,WindSpeedGustMPH,Humidity,HourlyPrecipIn,Conditions,Clouds,dailyrainin,SoftwareType,DateUTC
2013-01-06 00:05:00,33.0,29.0,30.06,SW,215,9.0,-999.0,86,-99.99,,,0.00,weatherlink.com 1.10,2013-01-06 05:05:00,
2013-01-06 00:20:00,33.1,29.0,30.05,SW,215,9.0,-999.0,86,-99.99,,,0.00,weatherlink.com 1.10,2013-01-06 05:20:00,
2013-01-06 00:35:00,33.2,29.0,30.04,SSW,210,4.0,-999.0,85,-99.99,,,0.00,weatherlink.com 1.10,2013-01-06 05:35:00,
2013-01-06 00:50:00,33.5,30.0,30.04,SSW,194,4.0,-999.0,85,-99.99,,,0.00,weatherlink.com 1.10,2013-01-06 05:50:00,
2013-01-06 01:05:00,33.8,30.0,30.02,SSW,204,4.0,-999.0,85,-99.99,,,0.00,weatherlink.com 1.10,2013-01-06 06:05:00,
2013-01-06 01:20:00,33.8,30.0,30.02,SW,222,3.0,-999.0,85,-99.99,,,0.00,weatherlink.com 1.10,2013-01-06 06:20:00,
2013-01-06 01:35:00,33.9,30.0,30.02,SSE,153,5.0,-999.0,85,-99.99,,,0.00,weatherlink.com 1.10,2013-01-06 06:35:00,
2013-01-06 01:50:00,33.8,30.0,30.00,South,175,2.0,-999.0,85,-99.99,,,0.00,weatherlink.com 1.10,2013-01-06 06:50:00,
2013-01-06 02:05:00,34.0,30.0,30.00,SW,225,7.0,-999.0,85,-99.99,,,0.00,weatherlink.com 1.10,2013-01-06 07:05:00,
2013-01-06 02:20:00,34.2,30.0,29.99,SSW,199,5.0,-999.0,85,-99.99,,,0.00,weatherlink.com 1.10,2013-01-06 07:20:00,
2013-01-06 02:35:00,34.4,30.0,30.00,SW,234,9.0,-999.0,85,-99.99,,,0.00,weatherlink.com 1.10,2013-01-06 07:35:00,
2013-01-06 02:50:00,34.6,31.0,30.00,SW,229,11.0,-999.0,85,-99.99,,,0.00,weatherlink.com 1.10,2013-01-06 07:50:00,
2013-01-06 03:05:00,34.7,30.0,30.00,SW,221,14.0,-999.0,84,-99.99,,,0.00,weatherlink.com 1.10,2013-01-06 08:05:00,
2013-01-06 03:20:00,35.0,31.0,30.00,SW,215,4.0,-999.0,84,-99.99,,,0.00,weatherlink.com 1.10,2013-01-06 08:20:00,
2013-01-06 03:35:00,34.9,31.0,29.99,SW,218,5.0,-999.0,84,-99.99,,,0.00,weatherlink.com 1.10,2013-01-06 08:35:00,
2013-01-06 03:50:00,35.0,31.0,29.98,SW,214,9.0,-999.0,84,-99.99,,,0.00,weatherlink.com 1.10,2013-01-06 08:50:00,
2013-01-06 04:05:00,35.1,31.0,29.97,SW,231,9.0,-999.0,84,-99.99,,,0.00,weatherlink.com 1.10,2013-01-06 09:05:00,
2013-01-06 04:20:00,35.1,31.0,29.96,WSW,248,8.0,-999.0,84,-99.99,,,0.00,weatherlink.com 1.10,2013-01-06 09:20:00,
2013-01-06 04:35:00,35.1,31.0,29.96,SSW,205,5.0,-999.0,84,-99.99,,,0.00,weatherlink.com 1.10,2013-01-06 09:35:00,
2013-01-06 04:50:00,35.1,31.0,29.96,SW,221,4.0,-999.0,85,-99.99,,,0.00,weatherlink.com 1.10,2013-01-06 09:50:00,
2013-01-06 05:05:00,35.1,31.0,29.95,SW,225,8.0,-999.0,85,-99.99,,,0.00,weatherlink.com 1.10,2013-01-06 10:05:00,
2013-01-06 05:20:00,35.0,31.0,29.95,SW,215,10.0,-999.0,85,-99.99,,,0.00,weatherlink.com 1.10,2013-01-06 10:20:00,
2013-01-06 05:35:00,35.0,31.0,29.94,SW,224,7.0,-999.0,85,-99.99,,,0.00,weatherlink.com 1.10,2013-01-06 10:35:00,
2013-01-06 05:50:00,35.1,31.0,29.94,SSW,207,6.0,-999.0,85,-99.99,,,0.00,weatherlink.com 1.10,2013-01-06 10:50:00,
2013-01-06 06:05:00,35.1,31.0,29.94,SW,218,5.0,-999.0,85,-99.99,,,0.00,weatherlink.com 1.10,2013-01-06 11:05:00,
2013-01-06 06:20:00,35.2,31.0,29.94,SW,221,7.0,-999.0,85,-99.99,,,0.00,weatherlink.com 1.10,2013-01-06 11:20:00,
2013-01-06 06:35:00,35.1,31.0,29.94,South,179,5.0,-999.0,85,-99.99,,,0.00,weatherlink.com 1.10,2013-01-06 11:35:00,
2013-01-06 06:50:00,35.1,31.0,29.94,SW,225,10.0,-999.0,85,-99.99,,,0.00,weatherlink.com 1.10,2013-01-06 11:50:00,
2013-01-06 07:05:00,35.1,31.0,29.94,SW,227,8.0,-999.0,85,-99.99,,,0.00,weatherlink.com 1.10,2013-01-06 12:05:00,
2013-01-06 07:20:00,35.1,31.0,29.94,SW,216,5.0,-999.0,85,-99.99,,,0.00,weatherlink.com 1.10,2013-01-06 12:20:00,
2013-01-06 07:35:00,35.1,31.0,29.93,SSW,211,6.0,-999.0,85,-99.99,,,0.00,weatherlink.com 1.10,2013-01-06 12:35:00,
2013-01-06 07:50:00,35.0,31.0,29.93,SSW,208,7.0,-999.0,85,-99.99,,,0.00,weatherlink.com 1.10,2013-01-06 12:50:00,
2013-01-06 08:05:00,35.0,31.0,29.93,SSW,205,5.0,-999.0,85,-99.99,,,0.00,weatherlink.com 1.10,2013-01-06 13:05:00,
2013-01-06 08:20:00,35.2,31.0,29.94,SW,215,4.0,-999.0,85,-99.99,,,0.00,weatherlink.com 1.10,2013-01-06 13:20:00,
2013-01-06 08:35:00,35.3,31.0,29.94,WSW,238,6.0,-999.0,85,-99.99,,,0.00,weatherlink.com 1.10,2013-01-06 13:35:00,
2013-01-06 08:50:00,35.4,31.0,29.94,SSE,167,3.0,-999.0,85,-99.99,,,0.00,weatherlink.com 1.10,2013-01-06 13:50:00,
2013-01-06 09:05:00,35.6,32.0,29.95,SW,231,8.0,-999.0,85,-99.99,,,0.00,weatherlink.com 1.10,2013-01-06 14:05:00,
2013-01-06 09:20:00,35.8,32.0,29.95,SW,215,7.0,-999.0,85,-99.99,,,0.00,weatherlink.com 1.10,2013-01-06 14:20:00,
2013-01-06 09:35:00,35.9,32.0,29.95,SSW,205,9.0,-999.0,85,-99.99,,,0.00,weatherlink.com 1.10,2013-01-06 14:35:00,
2013-01-06 09:50:00,36.0,32.0,29.95,SW,225,6.0,-999.0,85,-99.99,,,0.00,weatherlink.com 1.10,2013-01-06 14:50:00,
2013-01-06 10:05:00,36.2,32.0,29.95,SW,222,5.0,-999.0,85,-99.99,,,0.00,weatherlink.com 1.10,2013-01-06 15:05:00,
2013-01-06 10:20:00,36.2,32.0,29.95,SW,215,7.0,-999.0,85,-99.99,,,0.00,weatherlink.com 1.10,2013-01-06 15:20:00,
2013-01-06 10:35:00,36.2,32.0,29.96,SW,227,7.0,-999.0,85,-99.99,,,0.00,weatherlink.com 1.10,2013-01-06 15:35:00,
2013-01-06 10:50:00,36.2,32.0,29.96,WSW,240,5.0,-999.0,85,-99.99,,,0.00,weatherlink.com 1.10,2013-01-06 15:50:00,
2013-01-06 11:05:00,36.2,32.0,29.96,SSW,213,10.0,-999.0,85,-99.99,,,0.01,weatherlink.com 1.10,2013-01-06 16:05:00,
2013-01-06 11:20:00,36.0,32.0,29.95,SW,236,9.0,-999.0,85,-99.99,,,0.01,weatherlink.com 1.10,2013-01-06 16:20:00,
2013-01-06 11:35:00,35.9,32.0,29.95,SW,218,6.0,-999.0,85,-99.99,,,0.01,weatherlink.com 1.10,2013-01-06 16:35:00,
2013-01-06 11:50:00,35.9,32.0,29.95,SW,225,6.0,-999.0,85,-99.99,,,0.01,weatherlink.com 1.10,2013-01-06 16:50:00,
2013-01-06 12:05:00,36.0,32.0,29.95,SSW,204,8.0,-999.0,85,-99.99,,,0.01,weatherlink.com 1.10,2013-01-06 17:05:00,
2013-01-06 12:20:00,35.9,32.0,29.94,SW,229,5.0,-999.0,85,-99.99,,,0.01,weatherlink.com 1.10,2013-01-06 17:20:00,
2013-01-06 12:35:00,35.9,32.0,29.94,WSW,257,6.0,-999.0,86,-99.99,,,0.01,weatherlink.com 1.10,2013-01-06 17:35:00,
2013-01-06 12:50:00,35.4,32.0,29.94,West,277,6.0,-999.0,86,-99.99,,,0.01,weatherlink.com 1.10,2013-01-06 17:50:00,
2013-01-06 13:05:00,34.9,31.0,29.94,WNW,288,6.0,-999.0,86,-99.99,,,0.01,weatherlink.com 1.10,2013-01-06 18:05:00,
2013-01-06 13:20:00,33.8,30.0,29.94,SW,227,2.0,-999.0,86,-99.99,,,0.01,weatherlink.com 1.10,2013-01-06 18:20:00,
2013-01-06 13:35:00,33.9,31.0,29.95,West,262,4.0,-999.0,87,-99.99,,,0.01,weatherlink.com 1.10,2013-01-06 18:35:00,
2013-01-06 13:50:00,33.6,30.0,29.95,West,278,7.0,-999.0,87,-99.99,,,0.01,weatherlink.com 1.10,2013-01-06 18:50:00,
2013-01-06 14:05:00,32.0,29.0,29.96,WNW,294,5.0,-999.0,87,-99.99,,,0.01,weatherlink.com 1.10,2013-01-06 19:05:00,
2013-01-06 14:20:00,31.5,28.0,29.97,West,275,4.0,-999.0,86,-99.99,,,0.01,weatherlink.com 1.10,2013-01-06 19:20:00,
2013-01-06 14:35:00,31.1,27.0,29.98,North,350,7.0,-999.0,86,-99.99,,,0.01,weatherlink.com 1.10,2013-01-06 19:35:00,
2013-01-06 15:05:00,30.1,26.0,30.01,WNW,291,3.0,-999.0,85,-99.99,,,0.01,weatherlink.com 1.10,2013-01-06 20:05:00,
2013-01-06 15:20:00,29.7,26.0,30.02,SW,234,7.0,-999.0,85,-99.99,,,0.01,weatherlink.com 1.10,2013-01-06 20:20:00,
2013-01-06 15:35:00,29.4,26.0,30.03,SW,228,6.0,-999.0,85,-99.99,,,0.01,weatherlink.com 1.10,2013-01-06 20:35:00,
2013-01-06 15:50:00,29.4,26.0,30.04,West,269,6.0,-999.0,85,-99.99,,,0.01,weatherlink.com 1.10,2013-01-06 20:50:00,
2013-01-06 16:05:00,29.2,25.0,30.05,West,277,11.0,-999.0,85,-99.99,,,0.01,weatherlink.com 1.10,2013-01-06 21:05:00,
2013-01-06 16:20:00,28.9,25.0,30.07,West,275,7.0,-999.0,85,-99.99,,,0.01,weatherlink.com 1.10,2013-01-06 21:20:00,
2013-01-06 16:35:00,28.3,24.0,30.07,West,277,4.0,-999.0,85,-99.99,,,0.01,weatherlink.com 1.10,2013-01-06 21:35:00,
2013-01-06 16:50:00,28.0,24.0,30.08,West,275,6.0,-999.0,85,-99.99,,,0.01,weatherlink.com 1.10,2013-01-06 21:50:00,
2013-01-06 17:05:00,27.8,24.0,30.09,WSW,243,10.0,-999.0,85,-99.99,,,0.01,weatherlink.com 1.10,2013-01-06 22:05:00,
2013-01-06 17:20:00,27.3,23.0,30.09,WSW,243,6.0,-999.0,85,-99.99,,,0.01,weatherlink.com 1.10,2013-01-06 22:20:00,
2013-01-06 17:35:00,26.9,23.0,30.09,WSW,244,7.0,-999.0,85,-99.99,,,0.01,weatherlink.com 1.10,2013-01-06 22:35:00,
2013-01-06 17:50:00,26.7,23.0,30.11,SW,229,2.0,-999.0,85,-99.99,,,0.01,weatherlink.com 1.10,2013-01-06 22:50:00,
2013-01-06 18:05:00,26.5,23.0,30.12,SW,229,5.0,-999.0,85,-99.99,,,0.01,weatherlink.com 1.10,2013-01-06 23:05:00,
2013-01-06 18:20:00,26.5,23.0,30.13,WNW,288,3.0,-999.0,86,-99.99,,,0.01,weatherlink.com 1.10,2013-01-06 23:20:00,
2013-01-06 18:35:00,26.5,23.0,30.14,WSW,244,6.0,-999.0,86,-99.99,,,0.01,weatherlink.com 1.10,2013-01-06 23:35:00,
2013-01-06 18:50:00,26.5,23.0,30.15,WSW,242,3.0,-999.0,86,-99.99,,,0.01,weatherlink.com 1.10,2013-01-06 23:50:00,
2013-01-06 19:05:00,26.7,23.0,30.16,WNW,301,5.0,-999.0,86,-99.99,,,0.01,weatherlink.com 1.10,2013-01-07 00:05:00,
2013-01-06 19:20:00,26.9,23.0,30.17,West,273,3.0,-999.0,86,-99.99,,,0.01,weatherlink.com 1.10,2013-01-07 00:20:00,
2013-01-06 19:35:00,27.0,23.0,30.18,WNW,286,6.0,-999.0,86,-99.99,,,0.01,weatherlink.com 1.10,2013-01-07 00:35:00,
2013-01-06 19:50:00,27.1,24.0,30.18,West,259,2.0,-999.0,86,-99.99,,,0.01,weatherlink.com 1.10,2013-01-07 00:50:00,
2013-01-06 20:05:00,26.9,23.0,30.19,West,261,9.0,-999.0,86,-99.99,,,0.01,weatherlink.com 1.10,2013-01-07 01:05:00,
2013-01-06 20:20:00,27.1,24.0,30.19,WSW,246,3.0,-999.0,86,-99.99,,,0.01,weatherlink.com 1.10,2013-01-07 01:20:00,
2013-01-06 20:35:00,27.5,24.0,30.19,WSW,244,4.0,-999.0,87,-99.99,,,0.01,weatherlink.com 1.10,2013-01-07 01:35:00,
2013-01-06 20:50:00,27.7,24.0,30.20,WSW,241,2.0,-999.0,87,-99.99,,,0.01,weatherlink.com 1.10,2013-01-07 01:50:00,
2013-01-06 21:05:00,28.1,25.0,30.20,WNW,293,9.0,-999.0,87,-99.99,,,0.01,weatherlink.com 1.10,2013-01-07 02:05:00,
2013-01-06 21:20:00,28.3,25.0,30.21,West,278,1.0,-999.0,87,-99.99,,,0.01,weatherlink.com 1.10,2013-01-07 02:20:00,
2013-01-06 21:35:00,28.4,25.0,30.22,NW,315,6.0,-999.0,87,-99.99,,,0.01,weatherlink.com 1.10,2013-01-07 02:35:00,
2013-01-06 21:50:00,28.5,25.0,30.22,West,273,5.0,-999.0,87,-99.99,,,0.01,weatherlink.com 1.10,2013-01-07 02:50:00,
2013-01-06 22:05:00,28.5,25.0,30.22,West,275,1.0,-999.0,87,-99.99,,,0.01,weatherlink.com 1.10,2013-01-07 03:05:00,
2013-01-06 22:20:00,28.6,25.0,30.23,WSW,255,2.0,-999.0,87,-99.99,,,0.01,weatherlink.com 1.10,2013-01-07 03:20:00,
2013-01-06 22:35:00,28.7,25.0,30.23,West,263,6.0,-999.0,87,-99.99,,,0.01,weatherlink.com 1.10,2013-01-07 03:35:00,
2013-01-06 22:50:00,28.8,25.0,30.25,WNW,292,4.0,-999.0,87,-99.99,,,0.01,weatherlink.com 1.10,2013-01-07 03:50:00,
2013-01-06 23:05:00,29.0,26.0,30.26,West,277,0.0,-999.0,87,-99.99,,,0.01,weatherlink.com 1.10,2013-01-07 04:05:00,
2013-01-06 23:20:00,29.2,26.0,30.26,West,271,1.0,-999.0,87,-99.99,,,0.01,weatherlink.com 1.10,2013-01-07 04:20:00,
2013-01-06 23:35:00,29.6,26.0,30.26,West,275,0.0,-999.0,87,-99.99,,,0.01,weatherlink.com 1.10,2013-01-07 04:35:00,
2013-01-06 23:50:00,29.9,27.0,30.26,WNW,288,1.0,-999.0,87,-99.99,,,0.01,weatherlink.com 1.10,2013-01-07 04:50:00,